Location: Bazugues
(43.4465°N, 0.3432°E)
Time: 20:13:28
(UTC+00:00)

ERS-1 - Pass Details

Date: 12 January 2026
Orbit: 738 x 782 km, 98.8° (Epoch: 13 February)

Event Time Altitude Azimuth Distance (km) Brightness Sun altitude
Rises 17:50:52 0° 166° (SSE) 3,158 7.8 -11.8°
Reaches altitude 10° 17:53:08 10° 167° (SSE) 2,241 7.0 -12.2°
Maximum altitude 17:58:04 84° 255° (WSW) 753 4.5 -13.1°
Drops below altitude 10° 18:03:04 10° 345° (NNW) 2,274 6.9 -13.9°
Sets 18:05:23 0° 346° (NNW) 3,209 7.7 -14.3°
